Location: Unspecified
(0.0000°N, 0.0000°E)
Time: 17:13:26
(UTC+00:00)

Envisat - Pass Details

Date: 20 March 2019
Orbit: 764 x 766 km, 98.2° (Epoch: 23 May)

Event Time Altitude Azimuth Distance (km) Brightness Sun altitude
Rises 19:38:57 0° 186° (S) 3,228 6.3 -22.9°
Reaches altitude 10° 19:41:29 10° 196° (SSW) 2,300 5.6 -23.5°
Maximum altitude 19:45:55 31° 258° (WSW) 1,310 4.8 -24.6°
Drops below altitude 10° 19:50:22 10° 319° (NW) 2,293 5.9 -25.7°
Sets 19:52:53 0° 330° (NNW) 3,216 6.6 -26.4°
